Wind_Speed
15 15 15 15 14 13 13 12 11 11 11 10 10 11 11 11 10 10 10 9 8 8 8 7 7 6 5 5 4 3 3 2 2 2 1 2 2 2 2 3 3 3
16 16 15 15 15 14 14 13 12 12 12 12 12 12 12 11 11 10 10 9 9 8 8 7 7 6 6 5 4 3 3 2 2 2 2 2 3 3 4 4 4 4
17 16 16 16 16 15 15 14 14 14 14 13 13 13 12 12 11 11 11 10 10 9 9 8 7 7 6 5 4 3 3 3 2 1 1 2 3 4 4 5 5 5
19 18 18 17 16 16 15 15 15 15 15 15 15 14 13 13 12 12 11 11 10 10 10 9 8 8 7 6 5 4 3 3 2 2 2 2 2 3 4 5 6 6
20 20 19 18 17 16 16 16 16 17 17 16 16 15 15 14 13 13 12 12 11 11 11 10 9 9 8 7 6 5 4 4 4 3 3 3 3 3 3 4 5 6
21 21 20 19 18 18 17 17 17 17 18 17 17 16 16 15 14 14 13 13 12 12 12 11 11 10 9 9 8 7 6 6 6 6 5 5 5 4 4 4 4 4
22 22 22 21 20 19 19 19 18 18 18 18 17 17 17 16 16 15 14 14 14 14 13 13 12 12 11 11 10 9 8 8 9 9 8 8 7 6 5 5 4 4
23 23 23 22 22 21 21 21 20 20 19 18 18 18 18 17 17 16 15 15 15 15 14 14 14 14 13 13 12 12 11 11 11 10 10 9 9 8 8 7 6 5
24 23 23 22 22 22 23 23 22 21 20 19 19 18 18 18 17 17 17 17 16 16 16 16 16 16 15 15 14 14 13 12 12 11 11 10 10 10 10 10 9 8
25 25 24 23 23 23 24 24 24 23 22 21 21 20 19 19 18 18 18 18 18 18 18 17 17 17 17 17 16 15 14 14 13 13 13 13 12 12 12 12 12 11
26 26 25 24 24 24 24 25 24 23 23 23 22 22 21 20 19 19 19 19 19 19 19 19 19 19 19 18 17 17 16 16 15 15 15 15 15 14 14 14 14 13
28 28 27 26 26 26 26 25 25 24 24 24 23 23 23 22 21 20 20 20 20 20 20 20 20 20 20 20 20 19 19 18 18 17 17 17 17 16 16 16 16 15
29 29 29 29 28 28 27 27 26 25 25 25 25 25 25 24 23 23 22 22 22 22 22 22 22 21 22 22 22 22 21 20 19 19 19 18 18 18 17 17 17 17
30 31 31 31 31 30 30 29 28 28 27 27 27 27 26 26 26 25 25 24 24 24 24 24 23 23 24 24 24 24 23 22 21 21 20 20 20 19 19 19 19 19
29 30 30 31 31 32 32 32 31 30 29 29 28 27 27 27 27 27 27 26 26 27 26 26 25 25 25 25 25 26 25 24 23 23 22 22 21 21 21 21 21 21
29 29 29 29 30 32 33 34 33 32 31 30 29 29 29 28 28 28 28 28 28 28 28 27 27 27 27 27 27 27 26 26 25 25 25 24 24 22 22 22 22 23
31 30 29 29 30 31 33 34 35 34 32 31 31 31 31 31 30 29 29 29 29 29 29 28 28 29 28 28 28 27 27 27 27 27 27 26 26 24 23 24 24 25
34 32 31 31 31 31 31 32 34 34 33 33 33 33 34 34 33 31 30 30 29 29 29 29 30 30 29 28 28 28 28 28 28 28 27 27 27 26 25 25 25 26
35 34 33 33 33 33 32 31 32 33 34 35 35 35 36 36 35 33 32 32 32 32 32 32 32 31 30 30 30 30 30 30 29 29 29 28 27 27 27 27 27 27
39 38 37 36 36 35 34 34 33 32 32 34 35 36 36 37 37 36 35 35 34 34 34 34 33 33 32 32 31 32 31 31 31 31 31 30 29 28 27 27 28 28
43 42 40 39 38 37 35 36 37 35 33 32 33 34 35 36 37 37 36 35 34 34 34 34 34 34 34 33 33 32 32 30 31 32 32 32 31 29 28 29 29 30
44 42 40 40 40 38 37 38 40 39 36 32 32 33 34 34 34 35 36 35 34 35 35 33 33 34 34 34 33 32 31 30 29 31 31 31 31 31 30 30 30 30
41 41 41 40 40 40 41 41 41 39 37 34 33 35 37 36 33 31 34 35 36 37 37 34 34 35 35 34 34 33 32 30 30 30 30 30 30 31 31 31 32 32
42 43 44 43 42 42 41 41 40 38 38 38 36 36 39 39 36 33 35 37 37 39 40 38 37 38 37 35 34 34 33 33 32 31 31 31 31 32 34 34 35 35
31 33 38 41 42 43 41 40 40 39 39 39 38 37 38 39 38 37 37 38 39 41 42 41 40 39 38 36 35 36 36 36 35 34 34 35 35 35 36 37 37 37
19 21 24 27 31 36 39 40 41 41 39 38 37 37 39 40 40 39 37 37 41 44 44 43 42 41 40 38 37 38 39 39 39 38 39 39 38 37 37 38 38 38
Wind_Direction
203 201 200 202 202 203 204 204 203 205 209 208 207 208 207 207 207 205 206 205 204 203 200 199 200 197 192 188 185 185 186 194 213 229 242 254 265 267 266 266 266 258
211 209 207 207 208 208 209 209 206 207 210 212 213 215 214 211 209 208 207 204 202 204 206 206 208 207 205 201 199 202 207 209 217 233 252 260 264 264 261 259 259 258
216 216 215 215 215 215 213 213 213 212 212 214 216 218 219 217 213 211 209 206 203 203 205 207 209 212 215 216 213 219 226 229 235 244 257 267 269 267 266 262 260 261
219 220 220 221 222 222 221 220 219 218 217 217 218 220 222 221 220 217 214 211 209 207 206 206 207 210 215 220 224 231 240 247 254 260 268 278 277 272 270 267 266 267
223 223 224 225 226 227 228 228 227 226 224 223 222 222 222 223 224 223 220 216 213 212 212 211 210 211 214 218 222 226 231 237 246 252 262 274 280 284 284 277 268 266
228 228 228 228 228 229 231 233 233 234 233 231 230 228 226 226 226 226 225 222 218 216 216 216 215 216 218 221 224 225 227 230 233 236 242 249 257 266 277 281 275 271
228 230 232 232 231 230 232 235 236 238 239 238 238 236 234 232 230 229 229 228 225 221 219 218 219 220 222 224 226 227 230 233 235 235 235 238 240 243 249 253 253 260
227 228 231 234 235 234 234 235 237 239 241 242 242 242 242 241 238 235 234 233 232 229 226 224 223 223 225 227 228 228 230 232 236 239 241 244 247 248 251 252 248 243
230 229 230 233 235 237 238 237 237 239 240 242 242 243 244 245 245 243 240 238 237 235 233 231 230 229 229 230 231 231 233 235 240 245 248 251 253 254 258 261 260 257
235 233 232 233 235 238 240 240 240 241 242 243 244 244 245 246 247 247 246 245 242 240 237 237 236 236 235 235 236 236 238 240 244 247 250 252 252 253 255 259 262 264
239 237 235 234 235 237 240 242 243 244 244 245 246 246 247 247 248 248 248 248 247 245 243 241 240 240 240 241 241 242 242 243 245 248 251 253 254 253 253 255 257 259
241 241 238 236 236 237 239 241 243 244 244 244 245 245 246 247 247 248 248 249 250 249 248 247 245 244 245 246 246 246 245 245 246 247 249 252 255 256 255 256 257 257
241 242 241 239 237 237 238 239 240 241 242 242 242 242 243 243 243 244 244 246 248 250 250 250 249 248 248 249 249 249 249 250 251 252 253 256 257 258 258 258 259 260
240 240 241 241 241 240 240 239 239 239 240 241 242 242 242 242 242 242 241 241 243 245 248 249 250 250 250 250 251 252 253 255 256 256 257 259 261 262 262 260 260 261
244 243 244 245 246 246 245 244 242 242 241 241 242 243 244 244 243 242 242 241 241 242 243 244 245 247 249 251 252 253 253 254 255 255 255 255 256 258 260 260 259 260
249 247 246 246 247 249 250 249 248 246 245 245 245 246 246 245 244 244 243 243 243 244 244 244 243 244 246 248 250 252 253 253 254 255 256 254 254 255 257 260 262 263
247 246 245 245 246 246 248 250 251 251 249 248 247 248 248 247 245 245 244 244 244 246 248 249 248 248 247 248 250 252 253 254 254 255 256 256 256 256 256 258 261 263
245 245 246 245 245 245 245 247 250 253 253 251 249 248 248 248 247 247 246 247 247 248 250 252 254 254 255 255 256 256 255 255 254 254 255 255 255 255 254 254 255 257
245 246 246 245 245 247 249 248 247 249 249 250 250 249 249 249 249 249 248 248 248 248 248 250 252 254 256 257 257 257 257 256 255 254 252 251 252 253 254 255 256 256
240 242 244 244 243 246 250 252 251 249 247 247 248 249 250 250 250 249 249 249 250 250 251 251 252 253 253 253 253 254 255 256 255 255 253 251 252 253 255 257 259 260
234 235 239 243 244 244 246 249 252 252 249 246 247 249 251 252 252 251 251 251 253 254 254 255 256 256 255 254 253 252 253 253 253 254 254 254 256 257 257 258 259 261
237 236 239 244 246 245 244 244 247 251 249 245 246 250 251 251 252 254 254 254 253 252 251 252 253 255 255 255 254 253 253 252 251 251 253 255 258 261 261 261 261 262
242 242 244 245 246 246 244 240 241 245 245 244 245 249 250 247 246 249 252 251 249 249 249 247 247 251 253 253 253 255 255 254 252 251 252 253 256 260 263 264 265 265
247 248 248 247 246 246 246 244 244 244 244 245 244 244 246 246 242 240 244 245 244 245 247 247 246 249 250 251 253 255 256 257 256 254 254 255 256 259 262 264 265 266
253 254 251 248 247 246 244 245 244 240 239 242 243 243 246 248 245 241 243 246 244 244 246 248 248 249 250 252 253 254 254 256 257 256 256 257 258 260 263 264 265 265
272 273 268 265 259 252 247 246 245 239 234 237 240 243 245 247 246 245 245 247 246 245 246 249 250 251 253 254 254 253 255 257 257 256 255 256 258 260 262 263 263 264
Height
5941 5942 5943 5943 5944 5945 5945 5946 5946 5947 5947 5948 5948 5949 5949 5949 5950 5950 5951 5951 5952 5952 5953 5953 5953 5953 5954 5954 5954 5954 5954 5954 5954 5954 5954 5954 5954 5954 5954 5954 5955 5955
5940 5941 5942 5942 5943 5944 5944 5945 5946 5946 5947 5947 5948 5948 5948 5949 5949 5950 5950 5951 5952 5952 5953 5953 5953 5953 5953 5953 5954 5954 5954 5954 5954 5954 5954 5954 5954 5954 5954 5954 5954 5955
5939 5940 5941 5941 5942 5943 5944 5945 5945 5945 5946 5946 5947 5947 5948 5948 5949 5949 5950 5950 5951 5952 5952 5952 5953 5953 5953 5953 5953 5953 5953 5954 5954 5954 5954 5954 5954 5954 5954 5954 5954 5954
5938 5939 5940 5940 5941 5942 5943 5944 5944 5945 5945 5945 5946 5946 5947 5948 5948 5948 5949 5950 5950 5951 5951 5952 5952 5952 5953 5953 5953 5953 5953 5953 5954 5953 5953 5953 5953 5953 5953 5953 5953 5953
5937 5937 5938 5939 5940 5941 5942 5943 5943 5944 5944 5944 5945 5946 5946 5947 5947 5948 5948 5949 5949 5950 5950 5950 5951 5951 5952 5952 5952 5952 5953 5953 5953 5953 5953 5953 5953 5953 5953 5953 5953 5953
5935 5936 5937 5938 5939 5940 5941 5941 5942 5943 5943 5944 5944 5945 5945 5946 5946 5947 5947 5948 5948 5948 5949 5949 5949 5950 5950 5951 5951 5951 5951 5952 5952 5952 5952 5952 5952 5952 5952 5952 5952 5952
5933 5934 5935 5936 5937 5938 5939 5940 5941 5942 5943 5943 5944 5944 5944 5945 5945 5946 5947 5947 5947 5947 5947 5948 5948 5949 5949 5949 5950 5950 5950 5950 5950 5951 5951 5951 5951 5951 5951 5951 5951 5951
5931 5932 5933 5934 5935 5936 5937 5938 5939 5940 5941 5942 5943 5943 5944 5944 5945 5945 5946 5946 5946 5946 5946 5947 5947 5947 5948 5948 5948 5948 5949 5949 5949 5949 5950 5950 5950 5950 5950 5950 5950 5949
5929 5930 5931 5932 5933 5934 5934 5935 5936 5937 5938 5940 5941 5942 5943 5943 5944 5944 5945 5945 5945 5945 5946 5946 5946 5946 5946 5946 5947 5947 5947 5948 5948 5949 5949 5949 5949 5949 5949 5949 5949 5949
5927 5928 5928 5930 5930 5931 5932 5932 5933 5935 5936 5937 5938 5939 5940 5941 5942 5943 5943 5943 5944 5944 5944 5945 5945 5945 5945 5945 5946 5946 5946 5947 5947 5947 5947 5948 5948 5948 5948 5948 5948 5948
5925 5926 5926 5927 5928 5928 5929 5930 5931 5932 5934 5935 5936 5937 5938 5938 5939 5940 5941 5941 5942 5942 5943 5943 5943 5943 5943 5944 5944 5944 5945 5945 5945 5945 5946 5946 5946 5946 5946 5946 5946 5946
5922 5924 5924 5924 5925 5925 5926 5927 5929 5930 5931 5932 5933 5933 5934 5935 5936 5937 5938 5939 5939 5940 5941 5941 5941 5942 5942 5942 5942 5942 5943 5943 5944 5944 5944 5944 5945 5945 5945 5944 5944 5944
5919 5920 5921 5921 5921 5922 5923 5924 5925 5927 5928 5928 5929 5930 5931 5932 5933 5933 5934 5935 5936 5937 5938 5939 5939 5940 5940 5940 5940 5940 5941 5941 5942 5942 5943 5943 5943 5943 5943 5943 5942 5942
5915 5916 5918 5918 5919 5919 5920 5921 5921 5923 5924 5925 5926 5927 5928 5929 5929 5930 5931 5931 5932 5933 5934 5935 5937 5937 5938 5938 5938 5938 5939 5939 5940 5940 5941 5941 5942 5942 5942 5941 5941 5941
5913 5914 5915 5917 5917 5917 5918 5918 5919 5919 5921 5922 5923 5924 5925 5926 5927 5927 5928 5928 5929 5929 5930 5931 5933 5934 5935 5935 5936 5936 5936 5936 5937 5937 5937 5938 5938 5938 5939 5939 5939 5939
5911 5912 5913 5913 5914 5914 5915 5915 5916 5917 5918 5920 5921 5922 5923 5923 5924 5924 5925 5926 5926 5927 5927 5928 5929 5930 5930 5931 5932 5933 5933 5934 5934 5934 5934 5934 5935 5935 5935 5936 5936 5937
5907 5908 5909 5909 5909 5909 5910 5911 5912 5914 5915 5917 5918 5919 5919 5920 5921 5922 5923 5923 5924 5925 5925 5926 5926 5926 5927 5927 5928 5929 5930 5931 5931 5931 5931 5932 5932 5933 5933 5933 5933 5933
5903 5904 5905 5905 5905 5905 5906 5907 5908 5910 5912 5913 5914 5915 5915 5916 5917 5919 5920 5921 5922 5922 5923 5923 5923 5924 5924 5925 5926 5927 5927 5927 5928 5928 5928 5929 5929 5929 5929 5929 5929 5929
5899 5900 5900 5901 5902 5903 5903 5903 5904 5906 5907 5908 5909 5910 5911 5913 5914 5916 5917 5917 5918 5918 5918 5918 5918 5920 5921 5922 5922 5923 5924 5924 5925 5925 5925 5926 5926 5926 5926 5926 5926 5925
5893 5895 5896 5897 5898 5899 5900 5900 5900 5901 5902 5903 5904 5906 5907 5909 5910 5911 5912 5912 5913 5914 5914 5914 5914 5915 5916 5916 5917 5918 5919 5920 5921 5921 5922 5922 5922 5922 5922 5922 5922 5922
5887 5888 5891 5892 5893 5894 5895 5896 5896 5897 5898 5900 5901 5902 5903 5904 5905 5907 5908 5909 5911 5911 5911 5912 5912 5911 5912 5912 5912 5913 5914 5915 5916 5916 5917 5918 5918 5918 5918 5918 5918 5918
5884 5885 5887 5888 5889 5890 5891 5891 5891 5892 5894 5896 5898 5899 5899 5900 5902 5904 5905 5906 5907 5906 5906 5907 5907 5907 5908 5908 5908 5909 5909 5910 5911 5911 5912 5913 5914 5914 5914 5914 5914 5915
5880 5882 5883 5884 5884 5885 5886 5886 5887 5888 5890 5891 5893 5894 5895 5895 5897 5901 5902 5902 5902 5900 5900 5901 5902 5902 5903 5904 5904 5905 5906 5906 5907 5907 5908 5909 5909 5910 5910 5910 5910 5910
5876 5877 5879 5879 5880 5880 5881 5882 5883 5884 5886 5886 5886 5888 5890 5890 5891 5895 5896 5896 5896 5895 5894 5896 5897 5898 5899 5900 5900 5901 5902 5903 5903 5904 5905 5905 5905 5905 5905 5906 5906 5905
5872 5873 5873 5874 5874 5875 5876 5877 5876 5877 5879 5881 5881 5883 5884 5884 5885 5887 5888 5889 5891 5890 5890 5891 5892 5894 5895 5895 5895 5896 5897 5898 5899 5900 5901 5900 5900 5901 5901 5901 5901 5901
5867 5869 5869 5870 5870 5869 5870 5870 5870 5871 5873 5874 5875 5877 5877 5877 5878 5880 5882 5883 5884 5885 5886 5887 5888 5889 5890 5890 5890 5891 5892 5892 5893 5895 5895 5895 5895 5896 5896 5895 5895 5895